Погода в Чкалово

Казахстан     53°37′30″N   70°26′02″E
темп.,
°C
ветер,
м/с
пор.,
м/с
влажн.,
%
обл.,
%
осадки,
мм/ч
давл.,
гПа
погр.,
м
25 февраля, чт
чт2500:00−27ююз348964 0.0 101032
03:00−26юз239689 0.0 101126
06:00−29зсз339678 0.1 101120
09:00−31з349654 0.0 101438
12:00−25з579572 0.1 1015311
15:00−20сз7990100 0.1 1019894
18:00−22зсз71091100 0.2 1022811
21:00−27з61194100 0.0 1026284
26 февраля, пт
пт2600:00−29з5119574 0.1 1029191
03:00−29з5109550 0.0 1030222
06:00−29зюз599471 0.0 1032248
09:00−29зюз599493 0.0 1033257
12:00−26зюз579392 0.1 1034313
15:00−24зюз469182 0.0 1034360
18:00−25зюз339254 0.0 103422
21:00−27юз34913 0.0 103535
27 февраля, сб
сб2700:00−29юз44882 0.0 103557
03:00−30юз34900 0.0 103434
06:00−30ююз34900 0.0 103431
09:00−29ю34890 0.0 103340
12:00−24ююв35860 0.0 1032220
15:00−19юв35863 0.0 1030312
18:00−18юв34881 0.0 102755
21:00−13ююв51095100 0.6 1022518
28 февраля, вс
вс2800:00−12ю51194100 1.8 1019613
03:00−11ю61294100 1.8 1015719
06:00−9ю61394100 3.6 1011775
09:00−8ююв41088100 0.4 1008353
12:00−2ююз61188100 0.7 1006681
15:000юз61285100 0.1 1004831
18:000ююз4888100 0.1 1003186
21:00−1юз51095100 0.1 1004334
1 марта, пн
пн100:00−3юз5108999 0.1 1004212
03:00−3юз5109098 0.0 1004258
06:00−3юз5119199 0.0 1004331
09:00−3зюз61293100 0.2 1005520
12:00−3зюз71092100 0.3 1007666
15:00−8зсз6993100 0.4 1009394
18:00−12зсз699298 0.6 1012458
21:00−17з5109494 0.0 1016234